Location: Meadowbank Aerodrome
(65.0250°N, 96.0705°W)
Time: 12:33:36
(UTC-05:00)

Cosmos 2221 - Visible Passes

Search period start: 17 September 2014 00:00
Search period end: 27 September 2014 00:00
Orbit: 597 x 623 km, 82.5° (Epoch: 16 September)

Date Brightness Start Highest point End Pass type
(mag) Time Alt. Az. Time Alt. Az. Time Alt. Az.
17 Sep 5.9 01:20:58 10° NNW 01:21:29 10° NNW 01:21:59 10° NNW visible
17 Sep 5.7 04:39:20 10° N 04:41:15 13° NNE 04:43:10 10° ENE visible
17 Sep 3.1 20:36:55 10° SSE 20:40:49 35° E 20:44:44 10° NNE visible
17 Sep 3.2 22:14:10 10° SW 22:18:24 56° WNW 22:22:39 10° NNE visible
17 Sep 5.3 23:54:01 10° W 23:57:02 18° NW 00:00:04 10° N visible
18 Sep 5.6 04:53:44 10° N 04:56:16 15° NE 04:58:48 10° ENE visible
18 Sep 2.7 20:51:11 10° S 20:55:19 48° E 20:59:28 10° NNE visible
18 Sep 3.9 22:29:03 10° SW 22:33:08 41° WNW 22:37:14 10° N visible
19 Sep 5.6 00:09:29 10° WNW 00:12:00 15° NW 00:14:32 10° N visible
19 Sep 5.5 05:08:12 10° N 05:11:14 18° NE 05:14:16 10° E visible
19 Sep 2.4 21:05:36 10° S 21:09:52 68° ESE 21:14:09 10° NNE visible
19 Sep 4.4 22:44:04 10° WSW 22:47:56 31° NW 22:51:49 10° N visible
20 Sep 5.7 00:25:07 10° WNW 00:27:01 13° NNW 00:28:56 10° N visible
20 Sep 6.1 03:46:15 10° NNE 03:46:48 10° NNE 03:47:20 10° NNE visible
20 Sep 5.3 05:22:43 10° N 05:26:09 23° NE 05:29:36 10° E visible
20 Sep 2.5 21:20:10 10° SSW 21:24:28 87° WNW 21:28:48 10° NNE visible
20 Sep 4.9 22:59:13 10° WSW 23:02:47 25° NW 23:06:21 10° N visible
21 Sep 5.9 00:41:00 10° NW 00:42:05 11° NNW 00:43:09 10° N visible
21 Sep 5.9 04:00:12 10° N 04:01:52 12° NNE 04:03:31 10° NE visible
21 Sep 4.8 05:37:15 10° N 05:41:01 29° NE 05:44:48 10° ESE visible
21 Sep 3.0 21:34:52 10° SSW 21:39:08 63° WNW 21:43:25 10° NNE visible
21 Sep 5.3 23:14:30 10° W 23:17:41 20° NW 23:20:53 10° N visible
22 Sep 5.7 04:14:33 10° N 04:16:53 14° NE 04:19:13 10° ENE visible
22 Sep 4.3 05:51:48 10° N 05:55:50 37° ENE 05:59:52 10° SE visible
22 Sep 2.9 20:12:04 10° SSE 20:16:07 42° E 20:20:11 10° NNE visible
22 Sep 3.7 21:49:42 10° SW 21:53:51 46° WNW 21:58:01 10° NNE visible
22 Sep 5.6 23:29:54 10° WNW 23:32:38 16° NW 23:35:22 10° N visible
23 Sep 5.6 04:29:00 10° N 04:31:52 17° NE 04:34:44 10° E visible
23 Sep 3.6 06:06:23 10° NNW 06:10:35 50° ENE 06:14:48 10° SE visible
23 Sep 2.5 20:26:25 10° S 20:30:38 60° E 20:34:53 10° NNE visible
23 Sep 4.3 22:04:40 10° SW 22:08:37 35° WNW 22:12:35 10° N visible
23 Sep 5.8 23:45:27 10° WNW 23:47:37 14° NNW 23:49:47 10° N visible
24 Sep 5.3 04:43:29 10° N 04:46:48 21° NE 04:50:07 10° E visible
24 Sep 3.0 06:20:58 10° NNW 06:25:17 68° ENE 06:29:36 10° SSE visible
24 Sep 2.5 20:40:55 10° SSW 20:45:13 83° ESE 20:49:32 10° NNE visible
24 Sep 4.8 22:19:45 10° WSW 22:23:26 27° NW 22:27:08 10° N visible
25 Sep 6.0 00:01:12 10° NW 00:02:39 11° NNW 00:04:06 10° N visible
25 Sep 6.0 03:21:05 10° N 03:22:26 11° NNE 03:23:47 10° NE visible
25 Sep 4.9 04:58:00 10° N 05:01:41 26° NE 05:05:21 10° ESE visible
25 Sep 2.8 20:55:33 10° SSW 20:59:50 72° WNW 21:04:10 10° NNE visible
25 Sep 5.2 22:34:58 10° W 22:38:18 22° NW 22:41:39 10° N visible
26 Sep 5.9 03:35:22 10° N 03:37:28 13° NNE 03:39:35 10° ENE visible
26 Sep 4.4 05:12:33 10° N 05:16:30 34° ENE 05:20:28 10° ESE visible
26 Sep 3.4 21:10:20 10° SW 21:14:32 52° WNW 21:18:45 10° NNE visible
26 Sep 5.5 22:50:18 10° W 22:53:13 18° NW 22:56:09 10° N visible
